ATLAS 5 CENTAUR DEB, 55857

Orbit data source: Space-Track

ATLAS 5 CENTAUR DEB, 55857 is space debris in HEO originally from a launch on Wed, 17 Oct 2018 UTC launched from the Air Force Eastern Test Range (AFETR). Debris objects in space refer to the collection of defunct objects orbiting the Earth. Examples of debris include non-operational satellites, rocket bodies, and fragments generated from explosions, collisions, or faulty payload assembly.

Loading next visibility...
Identifier
55857, 2018-079HK
Orbit
HEO
Country
Flag of USUS
Related business
Flag of USUnited Launch Alliance/Lockheed Martin (US)
Manufacturer
ULA Decatur
Mission
Spacecraft
Bus & Motor
Unknown
Mass
Unknown
Launch date (UTC)
2018-10-17 (7 years ago)
Launch vehicle
Unknown
Launch site
Air Force Eastern Test Range (AFETR)
Object type
Payload
Rocket body
Debris
Shape & HBR
Unknown shape, 1.1 m
Radar Cross Section
RCS unknown

Expand to show TLE details & history
Last TLE update: 5 months ago

TLE from 5 months ago
0 ATLAS 5 CENTAUR DEB
1 55857U 18079HK  25249.69229159 -.00000141  00000-0  00000-0 0  9997
2 55857  13.7042  17.4527 4468592 351.4410   2.8349  2.00034889 21048
Epoch: 2025-09-06T16:36Z
TLE epoch observation values (Epoch: 2025-09-06T16:36:53.993Z)
Latitude
0.00001°
Longitude
142.22474°
Altitude
8,373.858 km
Speed
6.25 km/s
True Right ascension
01h 09m 53s
True Declination
0° 00' 00"
Sunlit
Object was in daylight at epoch
Visualization orbit readout
Latitude
Unknown
Longitude
Unknown
Altitude
Unknown
Speed
Unknown
Apparent Right ascension
Unknown
Apparent Declination
Unknown
Sunlit
N/A
Visualization observer readout
Local Sidereal Time
21:09:49
Azimuth
Unknown
Elevation
Unknown
Doppler factor
Unknown
Orbital elements
Apogee altitude
32,121.719 km
Perigee altitude
8,340.532 km
Semi-major axis
26,609.262 km
Eccentricity
0.44686
Inclination
13.7042°
RAAN
17.4527°
Arg. of periapsis
351.441°
True anomaly
8.27113°
Mean anomaly
2.8349°
Eccentric anomaly
5.1196°
Mean motion
0.50003 °/min
Orbital period
719.96 mins
BSTAR
0
Loading maneuver chart data...
Computing Atmospheric mass density...

Documentation

Showing up to 5 results
|